Location: Los Ranchitos
(37.9930°N, 122.5425°W)
Time: 06:59:14
(UTC+00:00)

USA 234 - Pass Details

Date: 21 September 2020
Orbit: 1102 x 1106 km, 123.0° (Epoch: 16 October)

Event Time Altitude Azimuth Distance (km) Brightness Sun altitude
Exits shadow 05:39:41 36° 355° (N) 1,687 4.4 -39.3°
Maximum altitude 05:41:03 39° 328° (NNW) 1,586 4.3 -39.5°
Drops below altitude 10° 05:47:00 10° 262° (W) 2,959 5.8 -40.4°
Sets 05:49:38 0° 255° (WSW) 3,916 6.5 -40.7°
